Find Starlink 11357

NORAD ID: 61541 Int'l Des: 2024-184 Owner: SPXS Country: US Constellation: starlink operational
又名: STARLINK-11357 [DTC] celestrak
LEOCIRCULAR

当前视图

正在加载3D地球...

About Starlink 11357

Starlink 11357 (NORAD 61541) is a starlink constellation satellite (v2 mini d2c) launched Oct 15, 2024 by SPXS of US. It operates in LEO, CIRCULAR orbit with a mass of 960.00 kg.

即将过境

Passes for default location (London). Set your location on the main map for personalized predictions.

高度历史

Loading altitude history...

两行轨道根数

1 61541U 24184K 26263.45784676 -.00000783 00000-0 -16127-5 0 9994
2 61541 53.1583 356.4352 0000735 70.3969 289.7129 15.69702389111002
Epoch: Sep 20, 2026 • Age: 11 hours

当前状态

高度 360.0 km
远地点 / 近地点 N/A
速度 7.70 km/s
星下点 9.70°N, 168.99°W
发射日期 Oct 15, 2024
运行时间 1.9 years
类型 internet

技术详情

分类 Payload
质量 960.00 kg
干质量 910.00 kg
长度 0.30 m
跨度 29.00 m
形状 ? Box + pan
制造商 SPXS
平台类型 Starlink V2MD
阶段状态 In Orbit
所有者/国家 SPXS/US

Most Searched